TimeCDT,TemperatureF,Dew PointF,Humidity,Sea Level PressureIn,VisibilityMPH,Wind Direction,Wind SpeedMPH,Gust SpeedMPH,PrecipitationIn,Events,Conditions,WindDirDegrees,DateUTC
12:15 AM,30.2,26.6,86,30.01,4.0,NNE,13.8,-,N/A,Snow,Light Snow,30,2013-03-24 05:15:00
12:35 AM,30.2,26.6,86,30.01,3.0,NNE,11.5,17.3,N/A,Snow,Light Snow,20,2013-03-24 05:35:00
12:55 AM,30.2,24.8,80,30.00,4.0,NNE,11.5,-,N/A,Snow,Light Snow,30,2013-03-24 05:55:00
1:15 AM,30.2,24.8,80,30.01,3.0,NNE,9.2,16.1,N/A,Snow,Light Snow,30,2013-03-24 06:15:00
1:35 AM,30.2,24.8,80,30.00,2.0,NNE,9.2,-,N/A,Snow,Light Snow,20,2013-03-24 06:35:00
1:55 AM,28.4,24.8,86,29.99,2.5,NNE,10.4,16.1,N/A,Snow,Light Snow,20,2013-03-24 06:55:00
2:35 AM,28.4,24.8,86,29.99,2.0,North,10.4,-,N/A,Snow,Light Snow,10,2013-03-24 07:35:00
2:55 AM,28.4,24.8,86,29.98,1.8,NNE,10.4,-,N/A,Snow,Light Snow,20,2013-03-24 07:55:00
3:15 AM,28.4,24.8,86,29.97,2.5,North,10.4,-,N/A,Snow,Light Snow,10,2013-03-24 08:15:00
3:35 AM,28.4,24.8,86,29.96,2.0,North,11.5,-,N/A,Snow,Light Snow,10,2013-03-24 08:35:00
3:55 AM,28.4,24.8,86,29.94,2.0,North,10.4,-,N/A,Snow,Light Snow,10,2013-03-24 08:55:00
4:15 AM,28.4,24.8,86,29.94,2.0,North,10.4,16.1,N/A,Snow,Light Snow,360,2013-03-24 09:15:00
4:35 AM,28.4,24.8,86,29.94,3.0,North,9.2,-,N/A,Snow,Light Snow,360,2013-03-24 09:35:00
4:55 AM,28.4,24.8,86,29.94,3.0,North,9.2,-,N/A,Snow,Light Snow,360,2013-03-24 09:55:00
5:15 AM,28.4,24.8,86,29.93,4.0,North,11.5,-,N/A,Snow,Light Snow,360,2013-03-24 10:15:00
5:35 AM,28.4,24.8,86,29.94,3.0,North,9.2,-,N/A,Snow,Light Snow,360,2013-03-24 10:35:00
5:55 AM,28.4,24.8,86,29.93,2.0,North,10.4,-,N/A,Snow,Light Snow,350,2013-03-24 10:55:00
6:15 AM,28.4,24.8,86,29.92,2.0,North,12.7,-,N/A,Snow,Light Snow,350,2013-03-24 11:15:00
6:35 AM,28.4,24.8,86,29.92,2.0,North,11.5,-,N/A,Snow,Light Snow,360,2013-03-24 11:35:00
6:55 AM,28.4,24.8,86,29.91,1.2,North,11.5,-,N/A,Snow,Light Snow,350,2013-03-24 11:55:00
7:15 AM,28.4,24.8,86,29.91,2.0,North,12.7,17.3,N/A,Snow,Light Snow,360,2013-03-24 12:15:00
7:35 AM,28.4,24.8,86,29.91,1.5,North,11.5,-,N/A,Snow,Light Snow,360,2013-03-24 12:35:00
7:55 AM,28.4,24.8,86,29.90,1.5,NNW,13.8,-,N/A,Snow,Light Snow,340,2013-03-24 12:55:00
8:15 AM,28.4,24.8,86,29.91,1.2,North,12.7,-,N/A,Snow,Light Snow,350,2013-03-24 13:15:00
8:35 AM,28.4,24.8,86,29.92,1.0,North,10.4,-,N/A,Snow,Light Snow,360,2013-03-24 13:35:00
8:55 AM,28.4,24.8,86,29.91,0.8,North,11.5,-,N/A,Snow,Light Snow,350,2013-03-24 13:55:00
9:15 AM,28.4,24.8,86,29.91,1.0,NNW,13.8,-,N/A,Snow,Light Snow,340,2013-03-24 14:15:00
9:35 AM,28.4,24.8,86,29.91,1.0,NNW,12.7,-,N/A,Snow,Light Snow,340,2013-03-24 14:35:00
9:55 AM,28.4,24.8,86,29.90,0.8,NNW,15.0,-,N/A,Snow,Light Snow,340,2013-03-24 14:55:00
10:15 AM,28.4,24.8,86,29.90,1.0,NNW,13.8,17.3,N/A,Snow,Light Snow,340,2013-03-24 15:15:00
10:35 AM,28.4,24.8,86,29.90,1.2,NNW,15.0,-,N/A,Snow,Light Snow,340,2013-03-24 15:35:00
10:55 AM,28.4,24.8,86,29.90,1.2,NNW,13.8,19.6,N/A,Snow,Light Snow,340,2013-03-24 15:55:00
11:15 AM,28.4,24.8,86,29.89,1.0,NNW,13.8,-,N/A,Snow,Light Snow,340,2013-03-24 16:15:00
11:35 AM,30.2,24.8,80,29.89,1.0,NNW,11.5,-,N/A,Snow,Light Snow,340,2013-03-24 16:35:00
11:55 AM,30.2,24.8,80,29.89,1.0,NNW,15.0,-,N/A,Snow,Light Snow,340,2013-03-24 16:55:00
12:15 PM,30.2,24.8,80,29.89,1.0,NNW,15.0,-,N/A,Snow,Light Snow,340,2013-03-24 17:15:00
12:35 PM,30.2,24.8,80,29.88,1.0,NNW,15.0,20.7,N/A,Snow,Light Snow,340,2013-03-24 17:35:00
12:55 PM,30.2,24.8,80,29.88,1.0,NNW,13.8,-,N/A,Snow,Light Snow,340,2013-03-24 17:55:00
1:15 PM,30.2,24.8,80,29.87,1.0,NNW,15.0,23.0,N/A,Snow,Light Snow,340,2013-03-24 18:15:00
1:35 PM,30.2,24.8,80,29.87,1.0,North,16.1,21.9,N/A,Snow,Light Snow,350,2013-03-24 18:35:00
1:55 PM,30.2,24.8,80,29.86,1.2,North,17.3,23.0,N/A,Snow,Light Snow,350,2013-03-24 18:55:00
2:15 PM,30.2,24.8,80,29.86,1.2,NNW,15.0,20.7,N/A,Snow,Light Snow,340,2013-03-24 19:15:00
2:35 PM,30.2,24.8,80,29.86,1.5,NNW,19.6,24.2,N/A,Snow,Light Snow,340,2013-03-24 19:35:00
2:55 PM,30.2,24.8,80,29.86,1.2,NNW,13.8,-,N/A,Snow,Light Snow,330,2013-03-24 19:55:00
3:15 PM,30.2,24.8,80,29.86,1.2,NNW,17.3,-,N/A,Snow,Light Snow,330,2013-03-24 20:15:00
3:35 PM,30.2,24.8,80,29.86,1.0,NNW,16.1,-,N/A,Snow,Light Snow,340,2013-03-24 20:35:00
3:55 PM,30.2,26.6,86,29.86,0.8,NNW,15.0,-,N/A,Snow,Light Snow,330,2013-03-24 20:55:00
4:15 PM,30.2,26.6,86,29.87,0.8,NNW,13.8,-,N/A,,Overcast,330,2013-03-24 21:15:00
4:35 PM,30.2,26.6,86,29.87,0.8,NNW,12.7,17.3,N/A,,Overcast,330,2013-03-24 21:35:00
4:55 PM,30.2,26.6,86,29.87,0.8,NNW,15.0,-,N/A,Snow,Light Snow,330,2013-03-24 21:55:00
5:15 PM,30.2,26.6,86,29.88,0.8,NW,13.8,18.4,N/A,,Overcast,320,2013-03-24 22:15:00
5:35 PM,30.2,26.6,86,29.88,1.0,NW,12.7,18.4,N/A,Snow,Light Snow,320,2013-03-24 22:35:00
6:15 PM,30.2,26.6,86,29.90,0.8,NNW,10.4,18.4,N/A,,Overcast,330,2013-03-24 23:15:00
6:35 PM,30.2,26.6,86,29.90,0.8,NNW,11.5,-,N/A,,Overcast,330,2013-03-24 23:35:00
6:55 PM,30.2,26.6,86,29.91,0.8,NW,16.1,-,N/A,Snow,Light Snow,320,2013-03-24 23:55:00
7:15 PM,30.2,26.6,86,29.92,0.8,NNW,12.7,-,N/A,Snow,Light Snow,330,2013-03-25 00:15:00
7:35 PM,30.2,26.6,86,29.92,0.5,NNW,9.2,12.7,N/A,Snow,Snow,340,2013-03-25 00:35:00
7:55 PM,30.2,26.6,86,29.92,1.5,NNW,15.0,24.2,N/A,Snow,Light Snow,340,2013-03-25 00:55:00
8:15 PM,30.2,26.6,86,29.93,1.5,NNW,10.4,-,N/A,Snow,Light Snow,330,2013-03-25 01:15:00
8:35 PM,30.2,26.6,86,29.93,1.2,NW,13.8,-,N/A,Snow,Light Snow,310,2013-03-25 01:35:00
8:55 PM,28.4,24.8,86,29.92,1.8,NNW,12.7,-,N/A,,Overcast,330,2013-03-25 01:55:00
9:15 PM,28.4,24.8,86,29.93,2.0,NNW,13.8,-,N/A,,Overcast,330,2013-03-25 02:15:00
9:35 PM,28.4,24.8,86,29.93,1.8,NNW,10.4,-,N/A,,Overcast,330,2013-03-25 02:35:00
9:55 PM,28.4,24.8,86,29.94,1.5,NNW,9.2,-,N/A,,Overcast,330,2013-03-25 02:55:00
10:15 PM,28.4,24.8,86,29.94,1.8,NNW,11.5,-,N/A,,Overcast,330,2013-03-25 03:15:00
10:35 PM,28.4,24.8,86,29.94,2.0,NNW,9.2,-,N/A,Snow,Light Snow,330,2013-03-25 03:35:00
10:55 PM,28.4,24.8,86,29.94,1.8,NNW,9.2,-,N/A,,Overcast,330,2013-03-25 03:55:00
11:15 PM,28.4,24.8,86,29.94,2.5,NW,9.2,-,N/A,,Overcast,320,2013-03-25 04:15:00
11:35 PM,28.4,24.8,86,29.94,1.8,NNW,10.4,-,N/A,,Overcast,330,2013-03-25 04:35:00
11:55 PM,28.4,24.8,86,29.94,1.5,NNW,11.5,-,N/A,,Overcast,330,2013-03-25 04:55:00